Location: Foulognes
(49.1413°N, 0.8183°W)
Time: 09:22:39
(UTC+00:00)

FALCON 9 DEB - Pass Details

Date: 21 October 2019
Orbit: 430 x 445 km, 53.0° (Epoch: 19 November)

Event Time Altitude Azimuth Distance (km) Brightness Sun altitude
Rises 18:20:21 0° 294° (WNW) 2,419 8.2 -13.4°
Reaches altitude 10° 18:22:28 10° 291° (WNW) 1,551 7.1 -13.8°
Maximum altitude 18:25:55 66° 209° (SSW) 484 3.4 -14.3°
Enters shadow 18:28:00 22° 132° (SE) 1,012 4.5 -14.7°
